Location: ??????
(38.5153°N, 23.0340°E)
Time: 13:37:23
(UTC+00:00)

Meteor 1-20 Rocket - Pass Details

Date: 13 December 2025
Orbit: 818 x 890 km, 81.2° (Epoch: 17 January)

Event Time Altitude Azimuth Distance (km) Brightness Sun altitude
Rises 15:32:02 0° 352° (N) 3,355 7.1 -5.1°
Reaches altitude 10° 15:34:26 10° 354° (N) 2,419 6.4 -5.5°
Maximum altitude 15:39:54 77° 81° (E) 846 4.1 -6.5°
Drops below altitude 10° 15:45:22 10° 167° (SSE) 2,422 6.7 -7.5°
Sets 15:47:47 0° 169° (S) 3,359 7.5 -7.9°
